Zurück zum Katalog

BREEZE-M DEB

AktivHEO
NORAD 32499·DEBRIS·🇷🇺 Russia

Gestartet Feb 28, 2006 von Baikonur Cosmodrome

Loading…

Nächste Überflüge (nächste 24 Stunden)

TLE

AktuellSource: Space-Track

Epoche: Sep 14, 2026, 06:34 UTC

1 32499U 06006AN  26257.27429476  .00001269  00000-0  68221-3 0  9992
2 32499  51.6326 258.4655 4691594 129.6832 282.1865  6.02147434 31115

Verfolge BREEZE-M DEB in Echtzeit mit AllMySat

Download on the App Store